Regional Weather Roundup
Issued by NWS

Home | Current Version | Previous Version | Text Only | Print | Product List | Glossary On
Versions: 1 2 3 4 5 6 7 8 9 10 11 12 13 14 15 16 17 18 19 20 21 22 23 24 25 26 27 28 29 30 31 32 33 34 35 36 37 38 39 40 41 42 43 44 45 46 47 48 49 50
000
ASUS43 KMPX 060210
RWRMN
WEATHER ROUNDUP FOR MINNESOTA
NATIONAL WEATHER SERVICE TWIN CITIES/CHANHASSEN MN
900 PM CDT SUN JUL 05 2015


NOTE: "FAIR" INDICATES FEW OR NO CLOUDS BELOW 12,000 FEET WITH NO
SIGNIFICANT WEATHER AND/OR OBSTRUCTIONS TO VISIBILITY. N/A MEANS
CURRENT SKY AND/OR WEATHER CONDITIONS ARE NOT AVAILABLE.

MNZ060>063-068>070-060300-
   Twin Cities Metro

CITY           SKY/WX    TMP DP  RH WIND       PRES   REMARKS
TWIN CITIES    MOCLDY    82  68  62 S14G20    29.79F
ST PAUL        CLEAR     80  69  69 S12       29.80F
CRYSTAL        CLEAR     83  69  62 S14G21    29.77F
BLAINE         PTCLDY    82  70  65 S16       29.78F
LAKEVILLE      CLEAR     77  68  73 S7        29.81F
EDEN PRAIRIE   CLEAR     81  70  69 S10       29.78F
SOUTH ST PAUL  CLEAR     80  67  63 S9        29.80F
LAKE ELMO      FAIR      79  68  69 S12       29.82F
$$
MNZ001>005-007-008-013>017-022>024-027-028-060300-
   Northwest Minnesota

CITY           SKY/WX    TMP DP  RH WIND       PRES   REMARKS
BEMIDJI        PTCLDY    69  66  92 NW7       29.80S
HALLOCK        CLOUDY    66  63  88 NW5       29.86R FOG
ROSEAU         MOCLDY    68  63  83 NW7       29.84S HAZE
WARROAD        PTCLDY    66  63  88 NW7       29.83S FOG
THIEF RVR FALL PTCLDY    70  64  83 NW12      29.84S
CROOKSTON      MOCLDY    70  66  88 N9        29.85R FOG
FOSSTON        PTCLDY    66  63  88 N10       29.82S
DETROIT LAKES  PTCLDY    72  64  78 N16G22    29.81S
MOORHEAD       PTCLDY    72  66  83 N12       29.79F
PARK RAPIDS    CLOUDY    73  67  81 N14       29.79R
MAHNOMEN       FAIR      71  65  83 N12       29.82R
$$
MNZ006-009>011-018-025>026-060300-
   North Central Minnesota

CITY           SKY/WX    TMP DP  RH WIND       PRES   REMARKS
BAUDETTE       PTCLDY    66  62  87 NW5       29.81R
FLAG ISLAND    MOCLDY    70  61  73 NW13      29.81S HAZE
INTL FALLS     CLEAR     69  63  81 NW12      29.77S
WASKISH        MOCLDY    72  66  83 NW13G20   29.81R
BIG FORK       MOCLDY    70  64  83 CALM      29.79R
LONGVILLE      TSTM      70  66  88 N8G21     29.78R
GRAND RAPIDS   CLOUDY    68  64  88 N5        29.79R THUNDER
CRANE LAKE     CLOUDY    68  64  88 W1        29.79R
COOK           CLOUDY    66  66 100 CALM      29.78R
WALKER         CLOUDY    67  66  96 NW6       29.78F THUNDER
$$
MNZ012-019>021-037-060300-
   Northeast Minnesota

CITY           SKY/WX    TMP DP  RH WIND       PRES   REMARKS
DULUTH         MOCLDY    78  69  73 S8        29.77F THUNDER
ELY            TSTM      77  66  69 SW8       29.75R
HIBBING        TSTM      67  64  90 NW9       29.75R FOG
DULUTH HARBOR  HVY RAIN  64  63  94 N9        29.76S
SILVER BAY     MOCLDY    70  63  78 CALM      29.76F
GRAND MARAIS     N/A     57  53  86 NE6       29.76F
G MARAIS ARPRT CLOUDY    68  57  68 S5        29.81F
$$
MNZ029>031-032-039>041-046>048-054>057-064-060300-
   West Central Minnesota

CITY           SKY/WX    TMP DP  RH WIND       PRES   REMARKS
FERGUS FALLS   CLEAR     73  66  78 N17G26    29.77R
WHEATON        PTCLDY    75  68  78 N18G24    29.78R
MORRIS         CLOUDY    70  66  88 E25       29.79R VSB 3/4
ALEXANDRIA     CLOUDY    71  70  96 N8        29.79R
ELBOW LAKE     FAIR      78  71  78 NW13      29.77R
WADENA         TSTM      73  68  83 CALM      29.77R
GLENWOOD       LGT RAIN  79  72  78 CALM      29.77S
APPLETON       CLOUDY    82  66  57 CALM      29.73S
BENSON         CLOUDY    81  68  65 CALM      29.74R
ORTONVILLE     TSTM      73  70  88 W7        29.76S
MADISON        CLOUDY    79  68  69 CALM      29.74F THUNDER
WILLMAR          N/A     82  73  74 CALM      29.76S
$$
MNZ033>034-036-042>043-049>051-058-059-060300-
   Central Minnesota

CITY           SKY/WX    TMP DP  RH WIND       PRES   REMARKS
ST CLOUD       CLEAR     81  72  74 S7        29.76F
SAUK CENTRE    FAIR      77  72  83 S3        29.77S
PAYNESVILLE    PTCLDY    78  70  74 SE6       29.76F
AITKIN         PTCLDY    79  70  73 S9        29.72F
PINE RIVER       N/A     75  72  88 NW5       29.78F
BRAINERD       PTCLDY    80  69  69 S8        29.74F
STAPLES        PTCLDY    79  68  69 S6        29.74F THUNDER
LONG PRAIRIE   MOCLDY    77  70  78 S7        29.76F
LITTLE FALLS   MOCLDY    81  68  65 SE5       29.76S
LITCHFIELD     PTCLDY    82  75  78 SE6       29.77R
BUFFALO        CLEAR     81  69  67 SE8       29.78S
MAPLE LAKE     CLEAR     81  73  76 S7        29.78S
$$
MNZ037-044-045-052-053-060300-
   East Central Minnesota

CITY           SKY/WX    TMP DP  RH WIND       PRES   REMARKS
PRINCETON      PTCLDY    82  72  69 S7        29.77F
MORA           PTCLDY    79  68  69 SW10      29.79S
CAMBRIDGE      CLEAR     82  68  61 S10       29.76S
RUSH CITY      LGT RAIN  79  69  70 S8        29.78S
MOOSE LAKE     MOCLDY    73  70  88 S5        29.74F
HINCKLEY       LGT RAIN  77  72  83 S9        29.77S
CLOQUET        MOCLDY    79  66  65 S6G17     29.76F
MCGREGOR       PTCLDY    79  70  73 S8        29.74F
$$
MNZ071>073-080-081-089-090-097-098-060300-
   Southwest Minnesota

CITY           SKY/WX    TMP DP  RH WIND       PRES   REMARKS
MONTEVIDEO       N/A    N/A N/A N/A MISG        N/A
GRANITE FALLS  PTCLDY    82  72  71 SE10      29.75R
CANBY          MOCLDY    82  71  68 S7        29.74F
MARSHALL       PTCLDY    82  70  65 S14       29.73S
REDWOOD FALLS  PTCLDY    83  71  67 S12       29.76S
OLIVIA         PTCLDY    79  68  69 S8        29.76R
PIPESTONE      PTCLDY    79  72  78 S8        29.78R
WINDOM         MOCLDY    82  68  61 S10G20    29.79F
WORTHINGTON    CLOUDY    81  68  65 S14G20    29.79F
JACKSON        PTCLDY    81  68  65 S10       29.81F
TRACY          PTCLDY    83  71  66 S14       29.77R
SLAYTON        MOCLDY    80  70  70 S13       29.80S
$$
MNZ065>067-074>077-082>085-091>093-060300-
   South Central Minnesota

CITY           SKY/WX    TMP DP  RH WIND       PRES   REMARKS
MANKATO        PTCLDY    81  66  61 S13G20    29.80F
NEW ULM        PTCLDY    81  68  65 S13       29.78F
ST JAMES       PTCLDY    81  72  74 SE12      29.79
FAIRMONT       PTCLDY    79  66  65 S13       29.80F
GLENCOE        PTCLDY    82  71  68 S8        29.77F
FARIBAULT      CLEAR     79  68  69 SE12G18   29.83F
OWATONNA       CLEAR     79  66  65 SE12      29.84F
WASECA         CLEAR     77  66  69 S10       29.84F
ALBERT LEA     CLEAR     79  66  65 S13G18    29.85F
$$
MNZ078>079-086>088-094>096-060300-
   Southeast Minnesota

CITY           SKY/WX    TMP DP  RH WIND       PRES   REMARKS
ROCHESTER      PTCLDY    75  66  73 S14       29.88F HAZE
RED WING       CLEAR     79  66  65 SE8       29.82F
STANTON        CLEAR     79  66  65 S14       29.81F
DODGE CENTER   CLEAR     75  66  73 S13       29.87F
WINONA         MOCLDY    77  64  65 S5        29.88F
AUSTIN         CLEAR     77  66  69 S9        29.87F
PRESTON        PTCLDY    73  65  74 S9        29.91F HAZE
$$
ABBREVIATIONS USED IN REMARKS
   TC - TEMPERATURES IN CELSIUS
  WCI - WIND CHILL INDEX
   HX - HEAT INDEX
  VSB - VISIBILITY
$$


USA.gov is the U.S. government's official web portal to all federal, state and local government web resources and services.